• In Uzbekistan
  • List of Countries
  • For 7 days
  • Water Temperature
  • Satellite Maps
  • Weather Map
  • Weather Widgets
  • user-avatar
    Login

    Hourly Weather Fredericton

    Today, 19 November, Sunday

    Time Temperature Precipitation Wind Pressure Humidity
    00:00 +2°C° 0 mm 1 mps 752 mmHg 70%
    01:00 +2°C° 0 mm 2 mps 751 mmHg 71%
    02:00 +2°C° 0 mm 2 mps 750 mmHg 72%
    03:00 +2°C° 0.4 mm 3 mps 749 mmHg 77%
    04:00 +3°C° 0.4 mm 3 mps 748 mmHg 82%
    05:00 +3°C° 0.4 mm 4 mps 747 mmHg 87%
    06:00 +4°C° 0.7 mm 4 mps 746 mmHg 90%
    07:00 +5°C° 0.7 mm 4 mps 744 mmHg 92%
    08:00 +7°C° 0 mm 5 mps 743 mmHg 95%
    09:00 +8°C° 2.4 mm 5 mps 742 mmHg 95%
    10:00 +9°C° 2.4 mm 5 mps 740 mmHg 95%
    11:00 +12°C° 2.4 mm 4 mps 739 mmHg 95%
    12:00 +12°C° 1.7 mm 5 mps 738 mmHg 95%
    13:00 +13°C° 1.7 mm 5 mps 737 mmHg 94%
    14:00 +13°C° 1.7 mm 5 mps 735 mmHg 93%
    15:00 +13°C° 0.4 mm 5 mps 735 mmHg 93%
    16:00 +13°C° 0.4 mm 5 mps 734 mmHg 92%
    17:00 +13°C° 0.4 mm 5 mps 734 mmHg 92%
    18:00 +10°C° 0.3 mm 6 mps 735 mmHg 89%
    19:00 +8°C° 0.3 mm 6 mps 736 mmHg 86%
    20:00 +5°C° 0.3 mm 6 mps 736 mmHg 83%
    21:00 +3°C° 0 mm 6 mps 738 mmHg 82%
    22:00 +1°C° 0 mm 6 mps 739 mmHg 81%
    23:00 -1°C° 0 mm 5 mps 740 mmHg 80%

    Tomorrow, 20 November, Monday

    Time Temperature Precipitation Wind Pressure Humidity
    00:00 -1°C° 0 mm 5 mps 740 mmHg 79%
    01:00 -1°C° 0 mm 5 mps 741 mmHg 78%
    02:00 -2°C° 0 mm 5 mps 742 mmHg 78%
    03:00 -2°C° 0 mm 5 mps 743 mmHg 77%
    04:00 -3°C° 0 mm 4 mps 743 mmHg 77%
    05:00 -3°C° 0 mm 4 mps 744 mmHg 76%
    06:00 -3°C° 0 mm 4 mps 745 mmHg 75%
    07:00 -4°C° 0 mm 4 mps 745 mmHg 73%
    08:00 -4°C° 0 mm 4 mps 746 mmHg 71%
    09:00 -5°C° 0 mm 5 mps 746 mmHg 67%
    10:00 -4°C° 0 mm 5 mps 747 mmHg 63%
    11:00 -4°C° 0 mm 5 mps 747 mmHg 59%
    12:00 -4°C° 0 mm 5 mps 748 mmHg 57%
    13:00 -3°C° 0 mm 6 mps 748 mmHg 55%
    14:00 -3°C° 0 mm 6 mps 748 mmHg 53%
    15:00 -4°C° 0 mm 5 mps 749 mmHg 53%
    16:00 -5°C° 0 mm 5 mps 749 mmHg 54%
    17:00 -5°C° 0 mm 5 mps 750 mmHg 54%
    18:00 -6°C° 0 mm 5 mps 751 mmHg 54%
    19:00 -7°C° 0 mm 5 mps 752 mmHg 53%
    20:00 -8°C° 0 mm 5 mps 753 mmHg 53%
    21:00 -8°C° 0 mm 5 mps 754 mmHg 52%
    22:00 -8°C° 0 mm 5 mps 754 mmHg 52%
    23:00 -8°C° 0 mm 5 mps 755 mmHg 52%

    Day after tomorrow, 21 November, Tuesday

    Time Temperature Precipitation Wind Pressure Humidity
    00:00 -8°C° 0 mm 5 mps 756 mmHg 53%
    01:00 -8°C° 0 mm 4 mps 756 mmHg 53%
    02:00 -8°C° 0 mm 4 mps 757 mmHg 53%
    03:00 -8°C° 0 mm 4 mps 758 mmHg 54%
    04:00 -8°C° 0 mm 4 mps 758 mmHg 54%
    05:00 -7°C° 0 mm 3 mps 759 mmHg 55%
    06:00 -7°C° 0 mm 3 mps 759 mmHg 56%
    07:00 -6°C° 0 mm 2 mps 760 mmHg 57%
    08:00 -6°C° 0 mm 2 mps 760 mmHg 59%
    09:00 -3°C° 0 mm 2 mps 760 mmHg 57%
    10:00 -1°C° 0 mm 2 mps 760 mmHg 54%
    11:00 +2°C° 0 mm 2 mps 760 mmHg 52%
    12:00 +2°C° 0 mm 3 mps 759 mmHg 54%
    13:00 +4°C° 0 mm 3 mps 759 mmHg 56%
    14:00 +6°C° 0 mm 4 mps 758 mmHg 58%
    15:00 +5°C° 0 mm 3 mps 758 mmHg 67%
    16:00 +3°C° 0 mm 3 mps 758 mmHg 76%
    17:00 +3°C° 0 mm 2 mps 758 mmHg 85%
    18:00 +3°C° 0 mm 2 mps 758 mmHg 86%
    19:00 +2°C° 0 mm 2 mps 759 mmHg 87%
    20:00 +2°C° 0 mm 2 mps 759 mmHg 88%
    21:00 +2°C° 0 mm 2 mps 759 mmHg 89%
    22:00 +2°C° 0 mm 2 mps 759 mmHg 90%
    23:00 +3°C° 0 mm 2 mps 759 mmHg 91%

    22 November, Wednesday

    Time Temperature Precipitation Wind Pressure Humidity
    00:00 +3°C° 0 mm 2 mps 759 mmHg 92%
    01:00 +3°C° 0 mm 2 mps 759 mmHg 93%
    02:00 +3°C° 0 mm 2 mps 759 mmHg 93%
    03:00 +3°C° 0 mm 2 mps 758 mmHg 93%
    04:00 +3°C° 0 mm 2 mps 758 mmHg 94%
    05:00 +3°C° 0 mm 2 mps 758 mmHg 94%
    06:00 +3°C° 0 mm 2 mps 758 mmHg 94%
    07:00 +3°C° 0 mm 2 mps 759 mmHg 93%
    08:00 +3°C° 0 mm 2 mps 759 mmHg 93%
    09:00 +4°C° 0 mm 3 mps 758 mmHg 88%
    10:00 +7°C° 0 mm 3 mps 757 mmHg 82%
    11:00 +8°C° 0 mm 4 mps 757 mmHg 76%
    12:00 +9°C° 0.8 mm 3 mps 756 mmHg 82%
    13:00 +9°C° 0.8 mm 2 mps 755 mmHg 88%
    14:00 +9°C° 0.8 mm 1 mps 755 mmHg 95%
    15:00 +9°C° 1.9 mm 1 mps 754 mmHg 96%
    16:00 +8°C° 1.9 mm 1 mps 754 mmHg 97%
    17:00 +7°C° 1.9 mm 1 mps 753 mmHg 98%
    18:00 +6°C° 0.8 mm 2 mps 753 mmHg 95%
    19:00 +4°C° 0.8 mm 3 mps 753 mmHg 91%
    20:00 +3°C° 0.8 mm 4 mps 753 mmHg 88%
    21:00 +1°C° 0.1 mm 4 mps 754 mmHg 86%
    22:00 0°C° 0.1 mm 4 mps 754 mmHg 84%
    23:00 -1°C° 0.1 mm 4 mps 754 mmHg 83%

    23 November, Thursday

    Time Temperature Precipitation Wind Pressure Humidity
    00:00 -1°C° 0 mm 4 mps 754 mmHg 84%
    01:00 -2°C° 0 mm 4 mps 754 mmHg 85%
    02:00 -3°C° 0 mm 4 mps 754 mmHg 86%
    03:00 -3°C° 0 mm 4 mps 754 mmHg 83%
    04:00 -4°C° 0 mm 4 mps 754 mmHg 81%
    05:00 -6°C° 0 mm 5 mps 755 mmHg 78%
    06:00 -6°C° 0 mm 5 mps 755 mmHg 77%
    07:00 -5°C° 0 mm 4 mps 756 mmHg 75%
    08:00 -7°C° 0 mm 4 mps 756 mmHg 74%
    09:00 -5°C° 0 mm 4 mps 756 mmHg 69%
    10:00 -5°C° 0 mm 5 mps 757 mmHg 65%
    11:00 -4°C° 0 mm 5 mps 757 mmHg 60%
    12:00 -3°C° 0 mm 4 mps 757 mmHg 58%
    13:00 -2°C° 0 mm 4 mps 757 mmHg 56%
    14:00 0°C° 0 mm 3 mps 756 mmHg 55%
    15:00 -1°C° 0 mm 3 mps 757 mmHg 59%
    16:00 -2°C° 0 mm 2 mps 757 mmHg 63%
    17:00 -1°C° 0 mm 1 mps 757 mmHg 67%
    18:00 -1°C° 0 mm 1 mps 757 mmHg 68%
    19:00 -1°C° 0 mm 1 mps 757 mmHg 69%
    20:00 -1°C° 0 mm 1 mps 758 mmHg 70%
    21:00 -1°C° 0 mm 1 mps 757 mmHg 70%
    22:00 -1°C° 0 mm 1 mps 757 mmHg 71%
    23:00 -1°C° 0 mm 1 mps 757 mmHg 71%

    24 November, Friday

    Time Temperature Precipitation Wind Pressure Humidity
    00:00 -1°C° 0 mm 1 mps 757 mmHg 69%
    01:00 -1°C° 0 mm 1 mps 756 mmHg 68%
    02:00 0°C° 0 mm 1 mps 756 mmHg 66%
    03:00 0°C° 0 mm 1 mps 755 mmHg 67%
    04:00 0°C° 0 mm 1 mps 755 mmHg 68%
    05:00 0°C° 0 mm 1 mps 754 mmHg 68%
    06:00 0°C° 0 mm 1 mps 754 mmHg 69%
    07:00 0°C° 0 mm 1 mps 754 mmHg 70%
    08:00 0°C° 0 mm 1 mps 753 mmHg 71%
    09:00 +1°C° 0 mm 2 mps 753 mmHg 66%
    10:00 +1°C° 0 mm 3 mps 752 mmHg 60%
    11:00 +1°C° 0 mm 4 mps 752 mmHg 55%
    12:00 +3°C° 0 mm 4 mps 752 mmHg 54%
    13:00 +2°C° 0 mm 5 mps 752 mmHg 53%
    14:00 +2°C° 0 mm 5 mps 751 mmHg 53%
    15:00 0°C° 0 mm 5 mps 752 mmHg 53%
    16:00 -2°C° 0 mm 5 mps 753 mmHg 53%
    17:00 -4°C° 0 mm 4 mps 754 mmHg 53%
    18:00 -5°C° 0 mm 4 mps 755 mmHg 51%
    19:00 -7°C° 0 mm 4 mps 756 mmHg 49%
    20:00 -8°C° 0 mm 4 mps 757 mmHg 48%
    21:00 -8°C° 0 mm 4 mps 757 mmHg 47%
    22:00 -8°C° 0 mm 4 mps 757 mmHg 47%
    23:00 -8°C° 0 mm 4 mps 757 mmHg 47%
    Show more